Weather History for KSAD - February, 2013

Change the Weather History Date:

Saturday, February 9, 2013

  Actual Average Record
Temperature  
Mean Temperature 42 °F -  
Max Temperature 48 °F 61 °F 78 °F (1953)
Min Temperature 35 °F 32 °F 16 °F (1967)
Degree Days  
Heating Degree Days 24    
Moisture  
Dew Point 26 °F    
Average Humidity 55    
Maximum Humidity 89    
Minimum Humidity 29    
Precipitation  
Precipitation 0.00 in - - ()
Sea Level Pressure  
Sea Level Pressure 29.83 in    
Wind  
Wind Speed 16 mph (NW)    
Max Wind Speed 29 mph    
Max Gust Speed 38 mph    
Visibility 10 miles    
Events Rain    
Averages and records for this station are not official NWS values.
T = Trace of Precipitation, MM = Missing Value Source: NWS Daily Summary

Daily Weather History Graph

Daily Weather History Graph

Search for Another Location

Airport or City:

Trip Planner

Search our weather history database for the weather conditions in past years. The results will help you decide how hot, cold, wet, or windy it might be!

Date:

Astronomy

Feb. 09, 2013 Rise Set
Actual Time 7:07 AM MST 5:58 PM MST
Civil Twilight 6:41 AM MST 6:24 PM MST
Nautical Twilight 6:12 AM MST 6:53 PM MST
Astronomical Twilight 5:43 AM MST 7:22 PM MST
Moon 6:21 AM MST (2/9) 5:43 PM MST (2/9)
Length of Visible Light 11h 42m
Length of Day
10h 51m
Waning Crescent, 0% of the Moon is Illuminated
Feb 9
Waning Crescent
Feb 10
New
Feb 17
First Quarter
Feb 25
Full
Mar 4
Last Quarter

Hourly Weather History & Observations

Time (MST) Temp. Windchill Dew Point Humidity Pressure Visibility Wind Dir Wind Speed Gust Speed Precip Events Conditions
12:51 AM 48.9 °F - 26.1 °F 41% 29.67 in 10.0 mi NW 11.5 mph 27.6 mph N/A   Clear
1:51 AM 48.0 °F - 28.0 °F 46% 29.67 in 10.0 mi NNW 15.0 mph - N/A   Clear
2:51 AM 46.9 °F - 25.0 °F 42% 29.66 in 10.0 mi NW 13.8 mph - N/A   Clear
3:51 AM 46.0 °F 39.0 °F 23.0 °F 40% 29.65 in 10.0 mi NW 17.3 mph 20.7 mph N/A   Clear
4:51 AM 46.0 °F 39.0 °F 23.0 °F 40% 29.66 in 10.0 mi NW 17.3 mph - N/A   Clear
5:51 AM 44.1 °F 40.8 °F 21.9 °F 42% 29.68 in 10.0 mi ESE 5.8 mph - N/A   Mostly Cloudy
6:38 AM 42.8 °F 34.0 °F 30.2 °F 61% 29.79 in 10.0 mi WNW 20.7 mph 33.4 mph N/A   Overcast
6:51 AM 39.0 °F 29.3 °F 33.1 °F 79% 29.75 in 10.0 mi NW 19.6 mph 31.1 mph 0.00 in Rain Light Rain
7:43 AM 37.4 °F 26.4 °F 33.8 °F 87% 29.83 in 10.0 mi NW 23.0 mph 29.9 mph 0.00 in Rain Light Rain
7:51 AM 36.0 °F 25.3 °F 33.1 °F 89% 29.79 in 8.0 mi NW 19.6 mph 31.1 mph 0.00 in Rain Light Rain
8:14 AM 35.6 °F 24.5 °F 32.0 °F 87% 29.85 in 10.0 mi NNW 20.7 mph 27.6 mph 0.00 in Rain Light Rain
8:51 AM 37.0 °F 26.4 °F 30.9 °F 79% 29.81 in 10.0 mi NW 20.7 mph - 0.00 in Rain Light Rain
9:51 AM 37.9 °F 28.5 °F 30.0 °F 73% 29.85 in 10.0 mi NW 17.3 mph 24.2 mph 0.00 in Rain Light Rain
10:51 AM 41.0 °F 31.9 °F 27.0 °F 57% 29.85 in 10.0 mi NNW 19.6 mph 25.3 mph 0.00 in   Overcast
11:51 AM 44.1 °F 36.5 °F 28.0 °F 53% 29.87 in 10.0 mi NNW 17.3 mph 20.7 mph N/A   Mostly Cloudy
12:51 PM 48.9 °F - 18.0 °F 29% 29.84 in 10.0 mi WNW 27.6 mph 38.0 mph N/A   Clear
1:51 PM 48.9 °F - 23.0 °F 36% 29.84 in 10.0 mi NW 25.3 mph 33.4 mph N/A   Partly Cloudy
2:51 PM 48.9 °F - 23.0 °F 36% 29.84 in 10.0 mi NW 28.8 mph 35.7 mph N/A   Clear
3:51 PM 45.0 °F 36.6 °F 25.0 °F 46% 29.87 in 10.0 mi NNW 21.9 mph 33.4 mph N/A   Mostly Cloudy
4:51 PM 44.1 °F 35.7 °F 25.0 °F 47% 29.88 in 10.0 mi NNW 20.7 mph - N/A   Scattered Clouds
5:51 PM 44.1 °F 37.4 °F 24.1 °F 45% 29.90 in 10.0 mi NNW 13.8 mph - N/A   Mostly Cloudy
6:51 PM 43.0 °F 36.4 °F 24.1 °F 47% 29.94 in 10.0 mi NNW 12.7 mph - N/A   Partly Cloudy
7:51 PM 42.1 °F 36.1 °F 24.1 °F 49% 29.96 in 10.0 mi NW 10.4 mph - N/A   Mostly Cloudy
8:51 PM 41.0 °F 33.5 °F 24.1 °F 51% 29.96 in 10.0 mi NW 13.8 mph - N/A   Clear
9:51 PM 37.9 °F 32.1 °F 23.0 °F 55% 29.99 in 10.0 mi WNW 8.1 mph - N/A   Clear
10:51 PM 36.0 °F 32.1 °F 23.0 °F 59% 30.00 in 10.0 mi WNW 4.6 mph - N/A   Clear
11:51 PM 35.1 °F 28.6 °F 21.9 °F 59% 30.00 in 10.0 mi NNW 8.1 mph - N/A   Mostly Cloudy